EA7NW Cordoba ES current weather conditions

sailwx.info

Wind from 344 at 2 knots gusting 6

Air temperature 21.7° C
Dewpoint 10.8° C

Last reported at 2014-Nov-23 02:45 UTC.
Time now 2014-Nov-23 03:25 UTC

Location: N 37°53' W 004°48'.
View on Google Maps.

See reports from other nearby stations

  
Tides and Currents Weather Stations Pressure Air Temp Water Temp Dewpoint Dewpoint Depression Visibility Wind Speed Wind Dir Waves Ship Positions
date/time (UTC)wind fromknots sea level pressurealtimeterstation pressurevisibilityair tempwater tempwave heightnotes
2014-Nov-23 02:45 344 2 gusting 6 21.7
2014-Nov-23 02:15 146 0 gusting 4 22.2
2014-Nov-23 02:00 225 1 gusting 5 22.8
2014-Nov-23 01:15 090 2 gusting 11 23.3
2014-Nov-23 01:00 073 1 gusting 11 23.3
2014-Nov-23 00:45 027 2 gusting 6 22.8
2014-Nov-23 00:00 135 2 gusting 5 22.8
2014-Nov-22 23:45 166 1 gusting 7 22.8
2014-Nov-22 23:00 090 1 gusting 13 23.3
2014-Nov-22 22:30 094 2 gusting 5 21.7
2014-Nov-22 22:15 135 22.2
2014-Nov-22 22:00 261 0 gusting 6 21.1
2014-Nov-22 21:30 173 2 gusting 6 20.6
2014-Nov-22 21:15 225 1 gusting 5 20.0
2014-Nov-22 21:00 254 1 gusting 6 20.0
2014-Nov-22 20:45 225 2 gusting 6 20.0
2014-Nov-22 20:30 180 2 gusting 8 19.4
2014-Nov-22 20:00 310 2 gusting 8 19.4
2014-Nov-22 19:30 192 4 gusting 8 20.0
2014-Nov-22 19:00 156 2 gusting 6 20.6
2014-Nov-22 18:30 270 4 gusting 6 21.7
2014-Nov-22 18:15 185 1 gusting 5 21.7
2014-Nov-22 18:00 214 2 gusting 6 21.1
2014-Nov-22 17:45 206 1 gusting 6 21.1
2014-Nov-22 17:15 229 1 gusting 5 21.1
2014-Nov-22 17:00 135 21.7
2014-Nov-22 16:30 225 1 gusting 5 22.2
2014-Nov-22 16:15 158 1 gusting 5 22.2
2014-Nov-22 16:00 226 2 gusting 6 22.2
2014-Nov-22 15:30 236 2 gusting 7 22.8
2014-Nov-22 14:15 221 1 gusting 6 23.3
2014-Nov-22 14:00 270 1 gusting 8 22.8
2014-Nov-22 13:45 205 3 gusting 7 22.8
2014-Nov-22 13:30 193 0 gusting 10 22.8
2014-Nov-22 13:15 286 4 gusting 11 22.2
2014-Nov-22 13:00 225 4 gusting 11 21.7
2014-Nov-22 12:45 243 4 gusting 8 21.1
2014-Nov-22 12:30 223 2 gusting 8 20.6
2014-Nov-22 12:15 195 2 gusting 8 21.1
2014-Nov-22 12:00 139 4 gusting 11 20.6
2014-Nov-22 11:45 142 2 gusting 8 20.6
2014-Nov-22 11:30 193 2 gusting 7 20.6
2014-Nov-22 11:00 225 3 gusting 8 20.0
2014-Nov-22 10:45 270 5 gusting 10 19.4
2014-Nov-22 10:30 277 5 gusting 11 18.9
2014-Nov-22 09:45 270 5 gusting 10 16.7
2014-Nov-22 09:30 244 4 gusting 11 16.7
2014-Nov-22 09:15 241 4 gusting 8 15.6
2014-Nov-22 09:00 270 4 gusting 8 15.6
2014-Nov-22 08:30 242 2 gusting 6 15.0
2014-Nov-22 08:15 270 4 gusting 8 15.0
2014-Nov-22 08:01 225 5 gusting 6 15.0
2014-Nov-22 07:45 225 4 gusting 7 15.0
2014-Nov-22 07:15 225 2 gusting 5 14.4
2014-Nov-22 07:00 225 1 gusting 5 14.4
2014-Nov-22 06:45 217 2 gusting 6 14.4
2014-Nov-22 06:15 270 5 gusting 7 15.0
2014-Nov-22 05:45 213 1 gusting 6 15.0
2014-Nov-22 05:30 176 1 gusting 5 15.0
2014-Nov-22 05:15 169 1 gusting 6 15.0
2014-Nov-22 05:00 239 4 gusting 8 15.0
2014-Nov-22 04:45 225 5 gusting 8 14.4
2014-Nov-22 04:15 256 4 gusting 7 14.4
2014-Nov-22 04:00 270 3 gusting 8 14.4
2014-Nov-22 03:45 243 5 gusting 8 14.4
2014-Nov-22 03:15 225 3 gusting 6 15.0
2014-Nov-22 03:00 224 2 gusting 6 15.0
2014-Nov-22 02:30 281 3 gusting 5 15.0
2014-Nov-22 02:14 180 0 gusting 4 15.6
2014-Nov-22 01:59 225 1 gusting 6 15.6
2014-Nov-22 01:45 245 4 gusting 7 15.6
2014-Nov-22 01:30 225 2 gusting 7 15.6
2014-Nov-22 01:15 132 1 gusting 6 15.0
2014-Nov-22 01:00 207 2 gusting 7 15.6
2014-Nov-22 00:30 225 3 gusting 6 16.1
2014-Nov-22 00:00 180 1 gusting 6 16.1
2014-Nov-21 23:29 180 0 gusting 4 16.1
2014-Nov-21 23:14 148 0 gusting 2 16.1
2014-Nov-21 22:59 136 0 gusting 4 16.1
2014-Nov-21 22:44 180 16.7
2014-Nov-21 22:29 135 1 gusting 2 16.7
2014-Nov-21 22:00 158 0 gusting 1 16.7
2014-Nov-21 21:44 098 0 gusting 6 17.2
2014-Nov-21 21:30 270 4 gusting 10 17.2
2014-Nov-21 20:44 192 1 gusting 5 17.8
2014-Nov-21 19:59 168 0 gusting 4 18.3
2014-Nov-21 19:30 124 18.3
2014-Nov-21 19:15 180 0 gusting 5 18.3
2014-Nov-21 19:00 090 1 gusting 5 17.8
2014-Nov-21 18:44 120 18.3
2014-Nov-21 18:00 135 19.4
2014-Nov-21 17:45 151 20.0
2014-Nov-21 17:29 198 0 gusting 4 20.6
2014-Nov-21 17:14 180 0 gusting 2 20.6
2014-Nov-21 16:59 180 0 gusting 2 21.1
2014-Nov-21 16:45 135 21.1
2014-Nov-21 16:29 212 21.7
2014-Nov-21 16:15 135 21.7
2014-Nov-21 16:00 207 1 gusting 6 21.7
2014-Nov-21 15:29 180 0 gusting 5 22.2
2014-Nov-21 14:59 212 1 gusting 6 22.2
2014-Nov-21 14:44 164 1 gusting 7 22.2
2014-Nov-21 14:29 291 1 gusting 8 21.7
2014-Nov-21 14:14 195 1 gusting 6 22.2
2014-Nov-21 13:29 270 3 gusting 6 21.1
2014-Nov-21 13:14 291 4 gusting 6 21.1
2014-Nov-21 12:14 225 2 gusting 8 20.0
2014-Nov-21 11:00 201 2 gusting 6 17.8
2014-Nov-21 09:14 242 4 gusting 8 15.0
2014-Nov-21 08:59 270 2 gusting 6 14.4
2014-Nov-21 08:29 214 3 gusting 6 14.4
2014-Nov-21 08:14 180 2 gusting 6 14.4
2014-Nov-21 07:29 260 2 gusting 6 13.9
2014-Nov-21 07:15 222 2 gusting 8 13.9
2014-Nov-21 06:44 135 1 gusting 8 13.3
2014-Nov-21 06:30 270 4 gusting 6 13.9
2014-Nov-21 06:15 206 4 gusting 7 13.9
2014-Nov-21 06:00 205 2 gusting 7 13.9
2014-Nov-21 05:45 270 3 gusting 5 13.9
2014-Nov-21 05:29 210 0 gusting 6 13.3
2014-Nov-21 05:14 225 2 gusting 7 13.9
2014-Nov-21 04:44 225 4 gusting 10 13.9
2014-Nov-21 04:29 319 2 gusting 6 13.9
2014-Nov-21 04:14 281 4 gusting 8 13.9
2014-Nov-21 03:59 270 4 gusting 7 14.4
2014-Nov-21 03:30 228 3 gusting 6 13.9
2014-Nov-21 03:15 226 1 gusting 5 13.9
2014-Nov-21 03:00 270 2 gusting 6 13.9